COSMOS 2251 DEB, 37487

Orbit data source: Space-Track

COSMOS 2251 DEB, 37487 is space debris in LEO originally from a launch on Wed, 16 Jun 1993 UTC launched from the Plesetsk Missile And Space Complex (PKMTR). The debris from Iridium 33, an American commercial communications satellite, has been tracked extensively since its accidental collision with the defunct Russian satellite Cosmos 2251 in 2009. This event, occurring at high speed in low Earth orbit (LEO), generated thousands of pieces of space debris, significantly increasing the risk of further collisions. The Iridium 33 debris cloud has impacted space traffic management and orbital debris mitigation strategies, making it a subject of ongoing study in space situational awareness.

Loading next visibility...
Identifier
37487, 1993-036BLQ
Orbit
LEO
Country
Flag of CISCIS
Related business
Manufacturer
Unknown
Mission
Spacecraft
Bus & Motor
Unknown
Mass
Unknown
Launch date (UTC)
1993-06-16 (32 years ago)
Launch vehicle
Unknown
Launch site
Plesetsk Missile And Space Complex (PKMTR)
Object type
Payload
Rocket body
Debris
Shape & HBR
Unknown shape, 0.1 m
Radar Cross Section
Small (<0.1 m²)

Expand to show TLE details & history
Last TLE update: 1 day ago

TLE from 1 day ago
0 COSMOS 2251 DEB
1 37487U 93036BLQ 25306.16979334  .00022659  00000-0  30962-2 0  9994
2 37487  73.9038 272.6061 0023979 115.5328 244.8330 14.78312245806454
Epoch: 2025-11-02T04:04Z
TLE epoch observation values (Epoch: 2025-11-02T04:04:30.144Z)
Latitude
-0.00002°
Longitude
169.79112°
Altitude
644.497 km
Speed
7.532 km/s
True Right ascension
18h 10m 25s
True Declination
0° 00' 00"
Sunlit
Object was in daylight at epoch
Visualization orbit readout
Latitude
Unknown
Longitude
Unknown
Altitude
Unknown
Speed
Unknown
Apparent Right ascension
Unknown
Apparent Declination
Unknown
Sunlit
N/A
Visualization observer readout
Local Sidereal Time
08:13:46
Azimuth
Unknown
Elevation
Unknown
Doppler factor
Unknown
Orbital elements
Apogee altitude
649.056 km
Perigee altitude
615.435 km
Semi-major axis
7,010.383 km
Eccentricity
0.0024
Inclination
73.9038°
RAAN
272.6061°
Arg. of periapsis
115.5328°
True anomaly
244.58462°
Mean anomaly
244.833°
Eccentric anomaly
244.70878°
Mean motion
3.69769 °/min
Orbital period
97.36 mins
BSTAR
0.0030962

Documentation

Showing up to 5 results
|